Weather History for Lancaster, OH

Change the Weather History Date:

Sunday, September 23, 2012

  Actual Average Record
Temperature  
Mean Temperature 48 °F -  
Max Temperature 64 °F 72 °F 91 °F (1970)
Min Temperature 34 °F 47 °F 26 °F (1947)
Degree Days  
Heating Degree Days 18    
Moisture  
Dew Point 36 °F    
Average Humidity 69    
Maximum Humidity 97    
Minimum Humidity 36    
Precipitation  
Precipitation 0.00 in - - ()
Sea Level Pressure  
Sea Level Pressure 30.20 in    
Wind  
Wind Speed 2 mph (WNW)    
Max Wind Speed 9 mph    
Max Gust Speed -    
Visibility 10 miles    
Events      
Averages and records for this station are not official NWS values.
T = Trace of Precipitation, MM = Missing Value Source: NWS Daily Summary

Daily Weather History Graph

Daily Weather History Graph

Search for Another Location

Airport:

Trip Planner

Search our weather history database for the weather conditions in past years. The results will help you decide how hot, cold, wet, or windy it might be!

Date:

Astronomy

Sep. 23, 2012 Rise Set
Actual Time 7:19 AM EDT 7:25 PM EDT
Civil Twilight 6:52 AM EDT 7:52 PM EDT
Nautical Twilight 6:21 AM EDT 8:23 PM EDT
Astronomical Twilight 5:49 AM EDT 8:55 PM EDT
Moon 3:24 PM EDT (9/23) 12:31 AM EDT (9/23)
Length of Visible Light 12h 59m
Length of Day
12h 05m
First Quarter, 60% of the Moon is Illuminated
Sep 23
First Quarter
Sep 29
Full
Oct 8
Last Quarter
Oct 15
New
Oct 21
First Quarter

Hourly Weather History & Observations

Time (EDT) Temp. Dew Point Humidity Pressure Visibility Wind Dir Wind Speed Gust Speed Precip Events Conditions
12:53 AM 37.9 °F 35.1 °F 89% 30.15 in 10.0 mi Calm Calm - N/A   Clear
1:53 AM 37.9 °F 35.1 °F 89% 30.14 in 10.0 mi Calm Calm - N/A   Clear
2:53 AM 36.0 °F 34.0 °F 93% 30.14 in 10.0 mi Calm Calm - N/A   Clear
3:53 AM 36.0 °F 34.0 °F 93% 30.15 in 10.0 mi Calm Calm - N/A   Clear
4:53 AM 34.0 °F 33.1 °F 96% 30.17 in 10.0 mi Calm Calm - N/A   Clear
5:53 AM 35.1 °F 33.1 °F 92% 30.19 in 10.0 mi Calm Calm - N/A   Clear
6:53 AM 34.0 °F 32.0 °F 92% 30.21 in 10.0 mi Calm Calm - N/A   Clear
7:53 AM 36.0 °F 35.1 °F 97% 30.22 in 9.0 mi Calm Calm - N/A   Clear
8:53 AM 46.0 °F 42.1 °F 86% 30.22 in 10.0 mi Calm Calm - N/A   Clear
9:53 AM 53.1 °F 41.0 °F 64% 30.23 in 10.0 mi NW 6.9 mph - N/A   Clear
10:53 AM 57.0 °F 41.0 °F 55% 30.23 in 10.0 mi NNW 5.8 mph - N/A   Clear
11:53 AM 59.0 °F 37.0 °F 44% 30.22 in 10.0 mi WNW 8.1 mph - N/A   Clear
12:53 PM 59.0 °F 37.0 °F 44% 30.21 in 10.0 mi Calm Calm - N/A   Mostly Cloudy
1:53 PM 60.1 °F 35.1 °F 39% 30.20 in 10.0 mi West 8.1 mph - N/A   Mostly Cloudy
2:53 PM 60.1 °F 35.1 °F 39% 30.19 in 10.0 mi West 6.9 mph - N/A   Overcast
3:53 PM 61.0 °F 34.0 °F 36% 30.19 in 10.0 mi NW 9.2 mph - N/A   Overcast
4:53 PM 61.0 °F 34.0 °F 36% 30.18 in 10.0 mi WNW 5.8 mph - N/A   Overcast
5:53 PM 59.0 °F 35.1 °F 41% 30.19 in 10.0 mi West 6.9 mph - N/A   Mostly Cloudy
6:53 PM 57.9 °F 34.0 °F 41% 30.19 in 10.0 mi WNW 5.8 mph - N/A   Mostly Cloudy
7:53 PM 51.1 °F 37.9 °F 61% 30.19 in 10.0 mi West 3.5 mph - N/A   Mostly Cloudy
8:53 PM 46.9 °F 37.0 °F 68% 30.21 in 10.0 mi Calm Calm - N/A   Partly Cloudy
9:53 PM 46.0 °F 41.0 °F 83% 30.22 in 10.0 mi Calm Calm - N/A   Mostly Cloudy
10:53 PM 44.1 °F 39.9 °F 85% 30.23 in 10.0 mi Calm Calm - N/A   Mostly Cloudy
11:53 PM 42.1 °F 39.0 °F 89% 30.25 in 10.0 mi Calm Calm - N/A   Mostly Cloudy